• In Sweden
  • List of Countries
  • For 7 days
  • Water Temperature
  • Satellite Maps
  • Weather Map
  • Weather Widgets
  • user-avatar
    Login

    Hourly Weather Komarovo

    Today, 25 May, Friday

    Time Temperature Precipitation Wind Pressure Humidity
    00:00 +6°C° 0 mm 5 mps 751 mmHg 49%
    01:00 +6°C° 0.1 mm 5 mps 750 mmHg 54%
    02:00 +6°C° 0.1 mm 5 mps 750 mmHg 59%
    03:00 +6°C° 0.1 mm 5 mps 749 mmHg 64%
    04:00 +6°C° 0 mm 5 mps 749 mmHg 65%
    05:00 +5°C° 0 mm 6 mps 749 mmHg 65%
    06:00 +5°C° 0 mm 6 mps 748 mmHg 66%
    07:00 +6°C° 0.5 mm 5 mps 748 mmHg 73%
    08:00 +5°C° 0.5 mm 5 mps 748 mmHg 79%
    09:00 +5°C° 0.5 mm 5 mps 747 mmHg 86%
    10:00 +5°C° 0.6 mm 4 mps 747 mmHg 87%
    11:00 +5°C° 0.6 mm 4 mps 748 mmHg 88%
    12:00 +7°C° 0.6 mm 3 mps 748 mmHg 89%
    13:00 +7°C° 0.6 mm 3 mps 748 mmHg 89%
    14:00 +5°C° 0.6 mm 3 mps 748 mmHg 89%
    15:00 +5°C° 0.6 mm 3 mps 748 mmHg 89%
    16:00 +6°C° 0.1 mm 4 mps 749 mmHg 81%
    17:00 +7°C° 0.1 mm 4 mps 749 mmHg 73%
    18:00 +8°C° 0.1 mm 4 mps 749 mmHg 66%
    19:00 +8°C° 0 mm 3 mps 750 mmHg 68%
    20:00 +6°C° 0 mm 2 mps 750 mmHg 71%
    21:00 +6°C° 0 mm 1 mps 751 mmHg 73%
    22:00 +4°C° 0 mm 2 mps 751 mmHg 73%
    23:00 +3°C° 0 mm 2 mps 752 mmHg 73%

    Tomorrow, 26 May, Saturday

    Time Temperature Precipitation Wind Pressure Humidity
    00:00 +2°C° 0 mm 2 mps 752 mmHg 73%
    01:00 +2°C° 0 mm 2 mps 753 mmHg 76%
    02:00 +1°C° 0 mm 2 mps 753 mmHg 78%
    03:00 -1°C° 0 mm 2 mps 753 mmHg 81%
    04:00 -1°C° 0 mm 2 mps 754 mmHg 78%
    05:00 +1°C° 0 mm 2 mps 754 mmHg 75%
    06:00 +3°C° 0 mm 1 mps 754 mmHg 72%
    07:00 +3°C° 0 mm 2 mps 754 mmHg 64%
    08:00 +4°C° 0 mm 2 mps 754 mmHg 55%
    09:00 +6°C° 0 mm 2 mps 754 mmHg 47%
    10:00 +7°C° 0 mm 2 mps 754 mmHg 42%
    11:00 +8°C° 0 mm 3 mps 754 mmHg 37%
    12:00 +9°C° 0 mm 3 mps 754 mmHg 33%
    13:00 +9°C° 0 mm 3 mps 753 mmHg 31%
    14:00 +10°C° 0 mm 2 mps 753 mmHg 30%
    15:00 +10°C° 0 mm 2 mps 753 mmHg 28%
    16:00 +10°C° 0 mm 2 mps 753 mmHg 29%
    17:00 +10°C° 0 mm 2 mps 753 mmHg 30%
    18:00 +9°C° 0 mm 2 mps 752 mmHg 31%
    19:00 +8°C° 0 mm 2 mps 752 mmHg 35%
    20:00 +7°C° 0 mm 2 mps 752 mmHg 38%
    21:00 +7°C° 0 mm 1 mps 752 mmHg 42%
    22:00 +5°C° 0 mm 2 mps 752 mmHg 43%
    23:00 +5°C° 0 mm 2 mps 752 mmHg 45%

    Day after tomorrow, 27 May, Sunday

    Time Temperature Precipitation Wind Pressure Humidity
    00:00 +4°C° 0 mm 2 mps 751 mmHg 46%
    01:00 +4°C° 0 mm 2 mps 751 mmHg 48%
    02:00 +3°C° 0 mm 2 mps 751 mmHg 50%
    03:00 +2°C° 0 mm 3 mps 751 mmHg 52%
    04:00 +2°C° 0 mm 3 mps 751 mmHg 53%
    05:00 +2°C° 0 mm 3 mps 751 mmHg 53%
    06:00 +2°C° 0 mm 3 mps 751 mmHg 54%
    07:00 +3°C° 0 mm 3 mps 751 mmHg 49%
    08:00 +5°C° 0 mm 3 mps 751 mmHg 45%
    09:00 +7°C° 0 mm 3 mps 751 mmHg 40%
    10:00 +8°C° 0 mm 3 mps 751 mmHg 37%
    11:00 +9°C° 0 mm 3 mps 751 mmHg 34%
    12:00 +9°C° 0 mm 3 mps 750 mmHg 31%
    13:00 +10°C° 0 mm 3 mps 750 mmHg 29%
    14:00 +10°C° 0 mm 3 mps 750 mmHg 28%
    15:00 +12°C° 0 mm 2 mps 750 mmHg 26%
    16:00 +12°C° 0 mm 2 mps 750 mmHg 26%
    17:00 +12°C° 0 mm 2 mps 749 mmHg 26%
    18:00 +12°C° 0 mm 2 mps 749 mmHg 26%
    19:00 +9°C° 0 mm 2 mps 749 mmHg 31%
    20:00 +7°C° 0 mm 2 mps 749 mmHg 36%
    21:00 +5°C° 0 mm 2 mps 749 mmHg 41%
    22:00 +5°C° 0 mm 1 mps 749 mmHg 43%
    23:00 +4°C° 0 mm 1 mps 749 mmHg 45%

    28 May, Monday

    Time Temperature Precipitation Wind Pressure Humidity
    00:00 +3°C° 0 mm 1 mps 749 mmHg 47%
    01:00 +3°C° 0 mm 1 mps 749 mmHg 48%
    02:00 +2°C° 0 mm 1 mps 749 mmHg 49%
    03:00 +2°C° 0 mm 1 mps 749 mmHg 51%
    04:00 +2°C° 0 mm 2 mps 749 mmHg 48%
    05:00 +3°C° 0 mm 2 mps 749 mmHg 46%
    06:00 +3°C° 0 mm 3 mps 749 mmHg 43%
    07:00 +6°C° 0 mm 4 mps 749 mmHg 39%
    08:00 +8°C° 0 mm 4 mps 749 mmHg 35%
    09:00 +10°C° 0 mm 5 mps 748 mmHg 30%
    10:00 +12°C° 0 mm 5 mps 748 mmHg 32%
    11:00 +13°C° 0 mm 5 mps 748 mmHg 33%
    12:00 +13°C° 0 mm 5 mps 748 mmHg 35%
    13:00 +13°C° 0.1 mm 5 mps 748 mmHg 42%
    14:00 +13°C° 0.1 mm 5 mps 748 mmHg 49%
    15:00 +13°C° 0.1 mm 5 mps 748 mmHg 55%
    16:00 +12°C° 0.4 mm 4 mps 748 mmHg 63%
    17:00 +11°C° 0.4 mm 3 mps 748 mmHg 71%
    18:00 +10°C° 0.4 mm 3 mps 748 mmHg 79%
    19:00 +10°C° 0.3 mm 3 mps 748 mmHg 81%
    20:00 +9°C° 0.3 mm 3 mps 748 mmHg 84%
    21:00 +8°C° 0.3 mm 4 mps 747 mmHg 86%
    22:00 +8°C° 0.9 mm 4 mps 747 mmHg 86%
    23:00 +8°C° 0.9 mm 4 mps 746 mmHg 86%

    29 May, Tuesday

    Time Temperature Precipitation Wind Pressure Humidity
    00:00 +8°C° 0.9 mm 5 mps 745 mmHg 87%
    01:00 +8°C° 0.4 mm 5 mps 745 mmHg 84%
    02:00 +8°C° 0.4 mm 6 mps 744 mmHg 82%
    03:00 +9°C° 0.4 mm 6 mps 743 mmHg 80%
    04:00 +9°C° 0.1 mm 6 mps 743 mmHg 79%
    05:00 +9°C° 0.1 mm 6 mps 743 mmHg 79%
    06:00 +9°C° 0.1 mm 6 mps 743 mmHg 78%
    07:00 +9°C° 0.5 mm 6 mps 743 mmHg 80%
    08:00 +10°C° 0.5 mm 7 mps 743 mmHg 82%
    09:00 +10°C° 0.5 mm 7 mps 743 mmHg 83%
    10:00 +10°C° 0.5 mm 7 mps 743 mmHg 84%
    11:00 +10°C° 0.5 mm 7 mps 743 mmHg 84%
    12:00 +10°C° 0.5 mm 7 mps 742 mmHg 84%
    13:00 +10°C° 0.3 mm 7 mps 743 mmHg 80%
    14:00 +11°C° 0.3 mm 7 mps 743 mmHg 77%
    15:00 +11°C° 0.3 mm 8 mps 743 mmHg 73%
    16:00 +10°C° 0.1 mm 7 mps 744 mmHg 71%
    17:00 +9°C° 0.1 mm 6 mps 744 mmHg 69%
    18:00 +8°C° 0.1 mm 6 mps 745 mmHg 67%
    19:00 +7°C° 0 mm 5 mps 746 mmHg 68%
    20:00 +6°C° 0 mm 4 mps 746 mmHg 69%
    21:00 +6°C° 0 mm 4 mps 747 mmHg 71%
    22:00 +4°C° 0 mm 3 mps 747 mmHg 75%
    23:00 +4°C° 0 mm 2 mps 748 mmHg 79%

    30 May, Wednesday

    Time Temperature Precipitation Wind Pressure Humidity
    00:00 +3°C° 0 mm 2 mps 748 mmHg 84%
    01:00 +4°C° 0 mm 1 mps 748 mmHg 85%
    02:00 +3°C° 0 mm 1 mps 748 mmHg 86%
    03:00 +3°C° 0 mm 1 mps 748 mmHg 87%
    04:00 +4°C° 0.1 mm 1 mps 748 mmHg 84%
    05:00 +4°C° 0.1 mm 2 mps 748 mmHg 80%
    06:00 +4°C° 0.1 mm 3 mps 747 mmHg 77%
    07:00 +4°C° 0.4 mm 3 mps 747 mmHg 78%
    08:00 +4°C° 0.4 mm 4 mps 747 mmHg 79%
    09:00 +5°C° 0.4 mm 4 mps 746 mmHg 80%
    10:00 +5°C° 0.6 mm 4 mps 746 mmHg 82%
    11:00 +5°C° 0.6 mm 4 mps 745 mmHg 83%
    12:00 +5°C° 0.6 mm 4 mps 744 mmHg 84%
    13:00 +6°C° 0.3 mm 4 mps 744 mmHg 83%
    14:00 +7°C° 0.3 mm 5 mps 743 mmHg 83%
    15:00 +7°C° 0.3 mm 5 mps 742 mmHg 83%
    16:00 +7°C° 0.6 mm 5 mps 742 mmHg 85%
    17:00 +8°C° 0.6 mm 4 mps 742 mmHg 87%
    18:00 +8°C° 0.6 mm 4 mps 742 mmHg 89%
    19:00 +8°C° 0.2 mm 3 mps 742 mmHg 91%
    20:00 +8°C° 0.2 mm 2 mps 742 mmHg 93%
    21:00 +8°C° 0.2 mm 2 mps 741 mmHg 96%
    22:00 +7°C° 0.2 mm 2 mps 741 mmHg 96%
    23:00 +7°C° 0.2 mm 2 mps 741 mmHg 97%
    Show more